Location: *
(2.5500°S, 65.9667°W)
Time: 12:41:27
(UTC+00:00)

Cosmos 2263 Rocket - Pass Details

Date: 26 October 2021
Orbit: 825 x 847 km, 71.0° (Epoch: 28 November)

Event Time Altitude Azimuth Distance (km) Brightness Sun altitude
Rises 23:17:07 0° 331° (NNW) 3,350 5.5 -16.3°
Reaches altitude 10° 23:19:38 10° 325° (NW) 2,423 4.8 -16.9°
Maximum altitude 23:24:52 43° 254° (WSW) 1,152 3.4 -18.2°
Drops below altitude 10° 23:30:10 10° 184° (S) 2,447 4.8 -19.4°
Sets 23:32:44 0° 177° (S) 3,387 5.5 -20.1°
